Temp
-15 -14 -15 -15 -15 -14 -14 -13 -13 -13 -13 -12 -12 -12 -12 -12 -11 -12 -12 -12 -12 -12 -12 -12 -12 -12 -12 -12 -12 -12 -13 -13 -14 -14 -13 -12 -13 -13 -14 -14 -14 -13 -13 -13 -13 -13 -13
-14 -14 -15 -15 -14 -14 -13 -13 -13 -13 -12 -12 -12 -12 -12 -11 -11 -11 -11 -11 -11 -12 -12 -12 -12 -12 -12 -12 -13 -13 -13 -13 -13 -13 -13 -13 -13 -13 -13 -12 -12 -13 -13 -13 -13 -13 -13
-14 -14 -14 -14 -14 -13 -13 -13 -12 -12 -12 -12 -12 -12 -12 -12 -11 -12 -12 -12 -12 -11 -11 -12 -12 -12 -12 -13 -13 -13 -13 -13 -13 -13 -13 -13 -13 -13 -13 -12 -12 -12 -13 -12 -12 -12 -13
-13 -13 -14 -14 -13 -13 -13 -12 -12 -12 -12 -12 -12 -12 -12 -12 -12 -12 -12 -12 -12 -12 -12 -12 -12 -12 -12 -13 -13 -13 -13 -13 -13 -13 -13 -13 -13 -13 -13 -13 -13 -12 -12 -12 -12 -12 -12
-14 -13 -13 -13 -13 -13 -12 -12 -12 -12 -12 -12 -12 -12 -12 -12 -12 -12 -12 -12 -12 -12 -12 -12 -12 -12 -12 -13 -13 -13 -13 -13 -13 -13 -13 -13 -13 -13 -13 -12 -13 -12 -12 -12 -12 -12 -12
-13 -14 -13 -13 -13 -13 -12 -12 -12 -12 -12 -12 -12 -12 -12 -12 -12 -12 -12 -12 -12 -12 -12 -12 -12 -12 -12 -13 -13 -13 -13 -13 -13 -13 -13 -13 -13 -13 -13 -12 -12 -12 -12 -12 -12 -12 -12
-14 -14 -13 -13 -13 -12 -12 -12 -12 -12 -12 -12 -12 -12 -12 -12 -12 -12 -12 -12 -12 -12 -12 -12 -12 -12 -12 -13 -13 -13 -13 -13 -13 -13 -13 -13 -12 -12 -12 -12 -12 -12 -12 -12 -12 -12 -12
-14 -14 -13 -13 -12 -12 -12 -12 -12 -12 -12 -12 -12 -12 -12 -12 -12 -12 -12 -12 -12 -13 -12 -12 -12 -12 -12 -13 -13 -13 -13 -13 -13 -13 -13 -13 -13 -13 -12 -13 -12 -12 -12 -12 -13 -12 -12
-14 -14 -13 -13 -12 -12 -12 -12 -12 -12 -12 -12 -12 -12 -12 -12 -12 -12 -12 -12 -12 -13 -13 -13 -13 -13 -13 -13 -13 -13 -13 -13 -13 -13 -13 -13 -13 -12 -12 -12 -12 -12 -12 -13 -12 -13 -12
-15 -14 -13 -13 -12 -12 -12 -12 -12 -12 -12 -12 -12 -12 -12 -12 -12 -12 -13 -13 -13 -13 -13 -13 -13 -13 -13 -13 -13 -13 -13 -13 -13 -13 -13 -13 -12 -12 -12 -12 -12 -12 -12 -12 -12 -13 -13
-14 -14 -14 -13 -13 -12 -12 -12 -12 -12 -12 -12 -12 -12 -12 -12 -12 -13 -13 -13 -13 -13 -13 -13 -13 -13 -13 -13 -13 -13 -13 -13 -13 -13 -13 -13 -13 -13 -12 -12 -12 -12 -12 -12 -12 -13 -13
-14 -14 -14 -13 -13 -12 -12 -12 -12 -12 -12 -12 -12 -12 -12 -12 -12 -13 -13 -13 -13 -13 -13 -13 -13 -13 -13 -13 -13 -13 -13 -13 -13 -13 -13 -13 -13 -13 -13 -12 -12 -12 -12 -12 -13 -13 -13
-14 -14 -13 -13 -13 -13 -12 -12 -12 -12 -12 -12 -12 -12 -12 -12 -12 -13 -13 -13 -13 -13 -13 -14 -14 -14 -14 -14 -14 -13 -13 -13 -13 -13 -13 -13 -13 -13 -13 -13 -12 -12 -12 -13 -13 -13 -13
-14 -13 -13 -13 -13 -13 -12 -12 -12 -12 -12 -12 -12 -12 -12 -12 -12 -13 -13 -13 -14 -14 -14 -14 -14 -14 -14 -14 -14 -14 -14 -14 -13 -13 -13 -13 -13 -13 -13 -13 -13 -13 -13 -13 -13 -13 -13
-14 -13 -13 -13 -13 -13 -12 -12 -12 -12 -12 -12 -12 -12 -12 -12 -12 -13 -13 -13 -14 -14 -14 -14 -14 -14 -14 -14 -14 -14 -14 -14 -14 -13 -14 -14 -13 -13 -13 -13 -13 -13 -13 -13 -13 -13 -13
-14 -13 -13 -13 -13 -13 -13 -12 -12 -12 -12 -12 -12 -13 -13 -13 -13 -13 -13 -14 -14 -14 -14 -14 -14 -14 -14 -14 -14 -14 -14 -14 -14 -14 -14 -14 -14 -14 -14 -14 -14 -14 -14 -14 -14 -14 -14
-14 -13 -13 -13 -13 -13 -13 -13 -12 -12 -12 -12 -13 -13 -13 -13 -13 -13 -14 -14 -14 -14 -14 -14 -14 -14 -14 -14 -14 -14 -15 -14 -14 -14 -14 -14 -15 -14 -14 -14 -14 -14 -14 -14 -14 -14 -14
-14 -14 -13 -13 -13 -13 -13 -13 -13 -13 -13 -13 -13 -13 -13 -13 -14 -13 -14 -14 -14 -14 -14 -15 -15 -15 -15 -15 -15 -15 -15 -15 -15 -15 -15 -15 -14 -14 -14 -14 -14 -15 -15 -15 -15 -15 -15
-14 -14 -14 -13 -13 -13 -13 -13 -13 -13 -13 -13 -13 -13 -13 -14 -14 -14 -14 -14 -14 -14 -14 -15 -15 -15 -15 -15 -15 -15 -15 -15 -15 -15 -15 -15 -15 -15 -15 -15 -15 -15 -16 -16 -16 -16 -16
-14 -14 -14 -14 -13 -13 -13 -13 -13 -13 -13 -13 -13 -14 -14 -14 -14 -14 -14 -14 -14 -14 -15 -15 -15 -15 -15 -15 -15 -15 -15 -15 -15 -15 -15 -15 -15 -15 -15 -15 -16 -16 -16 -16 -16 -16 -15
-15 -14 -14 -14 -14 -14 -14 -14 -14 -14 -14 -14 -14 -14 -14 -14 -14 -14 -14 -15 -14 -15 -15 -15 -15 -15 -15 -16 -15 -15 -15 -15 -16 -15 -15 -15 -15 -16 -16 -16 -16 -16 -16 -16 -16 -16 -16
-15 -15 -14 -14 -14 -14 -14 -14 -14 -14 -14 -14 -14 -14 -14 -14 -14 -15 -14 -15 -15 -15 -15 -15 -15 -16 -15 -16 -16 -16 -16 -16 -16 -16 -16 -16 -16 -16 -16 -16 -16 -16 -16 -16 -16 -16 -16
-16 -15 -15 -14 -14 -14 -14 -14 -14 -14 -14 -14 -14 -14 -15 -15 -15 -15 -15 -15 -15 -15 -15 -16 -16 -16 -16 -16 -16 -16 -16 -16 -16 -16 -16 -17 -17 -16 -16 -16 -16 -16 -16 -16 -16 -17 -16
-16 -16 -15 -15 -15 -14 -14 -14 -14 -15 -15 -14 -15 -15 -15 -15 -15 -15 -15 -15 -15 -15 -15 -16 -16 -16 -17 -17 -17 -17 -17 -17 -17 -17 -17 -17 -17 -16 -16 -16 -15 -17 -16 -17 -16 -17 -17
-16 -16 -16 -15 -15 -15 -15 -15 -15 -15 -15 -15 -15 -15 -15 -15 -16 -15 -15 -15 -16 -16 -16 -16 -16 -16 -16 -17 -17 -17 -17 -17 -17 -17 -17 -17 -16 -16 -16 -15 -15 -17 -16 -16 -16 -17 -18
-16 -16 -16 -16 -16 -16 -15 -15 -15 -15 -15 -15 -15 -15 -16 -16 -16 -16 -16 -16 -16 -16 -16 -16 -16 -17 -17 -17 -17 -17 -17 -17 -16 -17 -17 -17 -17 -17 -17 -16 -15 -18 -18 -18 -17 -17 -18
-17 -16 -16 -16 -16 -16 -16 -16 -16 -16 -16 -16 -16 -16 -16 -16 -16 -16 -16 -16 -16 -16 -16 -16 -17 -17 -17 -17 -17 -17 -17 -17 -17 -17 -17 -17 -17 -18 -18 -17 -17 -19 -18 -18 -18 -17 -18
-17 -17 -17 -17 -17 -16 -16 -16 -16 -16 -16 -16 -16 -16 -16 -16 -16 -16 -16 -17 -17 -17 -17 -17 -17 -17 -17 -18 -17 -17 -17 -17 -17 -17 -18 -18 -18 -18 -17 -18 -18 -19 -19 -20 -20 -19 -20
-17 -17 -17 -17 -17 -17 -17 -17 -17 -17 -16 -17 -17 -17 -16 -16 -17 -17 -17 -17 -17 -17 -17 -17 -17 -18 -17 -17 -17 -17 -17 -16 -17 -16 -18 -17 -19 -18 -19 -18 -19 -20 -20 -20 -21 -20 -21
Height
5771 5772 5773 5775 5776 5776 5778 5780 5780 5782 5785 5789 5793 5798 5802 5806 5809 5813 5817 5820 5824 5827 5829 5830 5832 5833 5835 5833 5833 5833 5831 5832 5829 5832 5830 5833 5829 5830 5826 5828 5828 5828 5830 5830 5830 5828 5828
5770 5771 5773 5774 5777 5778 5778 5780 5782 5785 5789 5794 5797 5801 5805 5809 5812 5816 5820 5824 5827 5830 5831 5833 5834 5835 5837 5835 5836 5834 5833 5834 5836 5835 5833 5833 5832 5833 5828 5829 5829 5830 5831 5831 5830 5829 5829
5770 5771 5772 5774 5776 5777 5779 5781 5784 5789 5793 5798 5801 5805 5809 5813 5817 5820 5823 5826 5829 5832 5834 5835 5836 5837 5837 5837 5836 5836 5836 5838 5837 5836 5836 5833 5832 5833 5831 5831 5831 5831 5831 5831 5830 5830 5829
5769 5771 5772 5774 5775 5778 5781 5783 5788 5792 5797 5801 5805 5809 5813 5816 5819 5823 5826 5828 5831 5833 5835 5836 5838 5838 5838 5838 5838 5839 5839 5839 5837 5837 5836 5835 5834 5832 5833 5832 5831 5831 5832 5831 5831 5830 5829
5769 5770 5771 5773 5776 5779 5782 5786 5791 5796 5800 5804 5808 5812 5815 5819 5822 5825 5828 5830 5833 5834 5836 5837 5838 5839 5840 5840 5840 5839 5839 5839 5838 5838 5837 5837 5835 5834 5834 5833 5832 5831 5830 5829 5829 5828 5827
5769 5771 5772 5774 5777 5781 5784 5789 5794 5799 5803 5807 5811 5815 5818 5822 5825 5827 5830 5832 5834 5835 5837 5838 5840 5842 5841 5841 5840 5840 5839 5839 5837 5836 5837 5836 5836 5835 5835 5834 5831 5830 5830 5828 5826 5826 5824
5769 5772 5773 5775 5779 5782 5787 5792 5797 5801 5806 5809 5813 5816 5820 5823 5826 5829 5832 5834 5836 5838 5838 5839 5840 5840 5840 5840 5840 5839 5839 5837 5837 5837 5837 5837 5836 5834 5833 5831 5829 5829 5828 5827 5825 5823 5824
5769 5771 5773 5776 5780 5784 5789 5794 5799 5803 5807 5812 5816 5819 5822 5825 5827 5830 5831 5833 5835 5837 5838 5838 5838 5838 5838 5838 5838 5838 5838 5838 5837 5836 5836 5836 5834 5832 5831 5829 5828 5829 5827 5826 5824 5822 5822
5768 5771 5774 5777 5781 5786 5790 5795 5799 5804 5808 5812 5816 5819 5822 5824 5826 5829 5830 5832 5833 5835 5836 5836 5836 5836 5836 5836 5836 5836 5836 5835 5835 5834 5835 5834 5833 5831 5831 5829 5828 5826 5825 5824 5823 5821 5818
5767 5770 5774 5777 5781 5786 5791 5795 5800 5804 5808 5812 5815 5818 5821 5823 5827 5827 5829 5830 5832 5833 5834 5835 5834 5835 5835 5834 5834 5834 5834 5835 5834 5833 5833 5833 5831 5829 5827 5826 5826 5823 5822 5820 5819 5818 5815
5766 5770 5773 5777 5781 5786 5791 5796 5800 5804 5808 5811 5814 5817 5820 5822 5823 5824 5827 5827 5829 5830 5831 5832 5831 5832 5832 5833 5832 5832 5832 5832 5831 5831 5831 5830 5828 5826 5823 5821 5821 5821 5818 5816 5815 5813 5811
5765 5769 5772 5776 5781 5785 5790 5795 5799 5803 5806 5809 5812 5814 5817 5818 5820 5821 5822 5824 5826 5828 5827 5828 5827 5828 5828 5828 5828 5829 5829 5829 5828 5827 5826 5826 5825 5823 5820 5817 5816 5815 5815 5812 5810 5809 5808
5764 5768 5772 5776 5781 5785 5789 5793 5797 5800 5803 5806 5809 5811 5813 5814 5816 5817 5818 5820 5822 5822 5824 5824 5823 5824 5824 5825 5824 5826 5827 5825 5823 5823 5821 5821 5822 5819 5817 5815 5812 5811 5810 5809 5806 5805 5802
5762 5767 5772 5776 5780 5784 5788 5791 5794 5797 5800 5802 5805 5807 5809 5810 5812 5813 5814 5816 5817 5819 5819 5819 5820 5820 5821 5822 5821 5821 5822 5820 5818 5817 5817 5815 5816 5815 5812 5811 5808 5806 5805 5804 5800 5799 5800
5760 5765 5771 5775 5779 5782 5786 5789 5792 5795 5797 5799 5802 5804 5806 5808 5809 5811 5813 5813 5814 5815 5815 5816 5816 5817 5819 5817 5816 5816 5815 5814 5812 5813 5812 5810 5808 5809 5807 5806 5805 5802 5800 5799 5796 5792 5790
5757 5763 5768 5772 5777 5780 5784 5787 5790 5793 5795 5797 5799 5802 5804 5806 5807 5809 5811 5811 5810 5811 5811 5813 5812 5813 5814 5812 5812 5812 5812 5810 5809 5808 5806 5807 5806 5803 5802 5801 5800 5798 5797 5791 5786 5782 5778
5754 5760 5765 5770 5774 5779 5782 5785 5788 5790 5793 5795 5797 5799 5802 5804 5805 5807 5808 5808 5809 5808 5809 5810 5809 5809 5810 5809 5809 5809 5809 5808 5807 5806 5804 5803 5803 5801 5799 5797 5796 5795 5790 5784 5779 5776 5771
5750 5756 5761 5767 5771 5776 5779 5782 5786 5789 5791 5793 5794 5797 5799 5801 5803 5803 5805 5805 5806 5806 5807 5807 5807 5807 5807 5807 5807 5806 5806 5805 5804 5802 5800 5799 5798 5795 5792 5789 5788 5788 5785 5779 5771 5767 5765
5746 5752 5758 5763 5768 5772 5776 5779 5783 5786 5789 5791 5793 5794 5796 5798 5800 5801 5802 5802 5802 5803 5803 5803 5804 5805 5805 5805 5804 5802 5802 5801 5799 5796 5795 5794 5794 5792 5786 5784 5781 5781 5781 5771 5762 5757 5754
5741 5748 5753 5759 5763 5768 5772 5776 5779 5783 5786 5788 5790 5792 5794 5796 5797 5798 5799 5799 5800 5800 5801 5801 5802 5802 5801 5801 5800 5798 5796 5795 5794 5792 5790 5788 5786 5785 5783 5778 5771 5777 5776 5768 5759 5755 5747
5737 5743 5749 5754 5759 5764 5768 5772 5775 5779 5783 5785 5787 5789 5791 5793 5794 5794 5795 5795 5797 5797 5797 5797 5798 5798 5796 5795 5794 5793 5791 5789 5786 5785 5783 5782 5780 5778 5776 5771 5766 5767 5760 5755 5751 5749 5740
5731 5737 5743 5748 5754 5758 5762 5766 5771 5775 5778 5781 5784 5786 5787 5790 5790 5790 5792 5793 5794 5794 5794 5793 5794 5793 5794 5792 5790 5788 5786 5784 5782 5780 5775 5772 5770 5764 5770 5762 5756 5758 5751 5745 5741 5735 5729
5725 5731 5737 5742 5747 5752 5757 5761 5765 5769 5773 5775 5778 5781 5783 5785 5786 5787 5788 5789 5789 5789 5789 5790 5789 5787 5786 5784 5784 5782 5780 5778 5776 5773 5771 5767 5760 5755 5754 5752 5746 5752 5743 5737 5731 5728 5721
5718 5725 5730 5736 5741 5746 5752 5756 5759 5763 5767 5770 5774 5777 5779 5780 5781 5782 5782 5783 5783 5783 5782 5782 5784 5782 5780 5778 5777 5776 5773 5770 5767 5764 5763 5759 5753 5748 5742 5739 5734 5741 5730 5725 5719 5714 5709
5712 5718 5724 5729 5735 5740 5745 5749 5753 5757 5761 5764 5768 5771 5773 5774 5775 5775 5776 5777 5776 5776 5777 5774 5776 5774 5773 5770 5767 5766 5765 5762 5758 5758 5754 5749 5744 5738 5735 5727 5723 5729 5717 5712 5703 5700 5694
5704 5711 5716 5723 5728 5733 5738 5743 5747 5751 5755 5758 5761 5764 5766 5768 5769 5769 5769 5770 5770 5768 5768 5765 5765 5765 5763 5759 5756 5753 5752 5749 5748 5747 5745 5740 5736 5732 5726 5718 5712 5715 5706 5699 5691 5689 5682
5696 5703 5709 5715 5721 5726 5732 5736 5739 5743 5747 5750 5753 5756 5759 5760 5762 5761 5762 5761 5761 5760 5761 5758 5755 5755 5753 5749 5745 5742 5741 5739 5736 5735 5733 5730 5725 5723 5717 5712 5705 5705 5696 5687 5681 5677 5667
5688 5695 5701 5707 5712 5718 5723 5728 5732 5735 5738 5742 5744 5747 5750 5751 5752 5753 5753 5753 5751 5750 5750 5747 5745 5746 5741 5739 5735 5731 5728 5728 5726 5724 5722 5719 5714 5710 5705 5696 5693 5686 5678 5674 5668 5660 5655
5680 5687 5693 5698 5704 5709 5714 5718 5722 5726 5729 5732 5735 5736 5738 5740 5742 5742 5744 5743 5741 5741 5738 5735 5735 5732 5725 5727 5725 5718 5716 5713 5713 5710 5712 5706 5705 5701 5699 5687 5683 5675 5668 5662 5653 5646 5641
Wind_Speed
10 8 10 14 17 8 7 16 15 20 27 37 39 39 39 37 34 33 31 28 26 22 21 19 19 19 17 20 19 20 20 17 19 17 17 16 17 16 17 15 14 11 11 10 9 9 8
6 9 13 17 13 9 9 18 20 26 40 41 40 40 38 36 34 32 29 26 23 20 18 17 17 15 13 16 13 14 16 15 12 12 12 16 14 13 14 14 14 12 9 7 5 4 5
12 10 18 11 10 11 17 22 27 39 40 40 39 37 36 35 34 31 29 26 24 20 16 15 13 11 13 15 14 13 13 10 12 10 10 11 13 10 9 10 11 12 7 5 4 2 1
13 15 13 12 13 16 23 28 40 40 40 40 37 36 36 34 33 30 27 24 22 21 18 16 13 10 9 10 10 9 7 7 8 7 8 7 8 9 7 5 5 4 4 3 4 2 3
14 17 13 15 17 23 27 37 41 40 40 37 37 35 34 32 30 29 26 24 22 20 17 14 13 11 7 7 6 5 5 6 6 6 5 5 7 6 7 6 2 0 4 7 5 4 3
15 16 16 18 21 25 35 41 40 38 38 37 34 32 29 26 24 23 21 18 18 16 15 14 11 11 10 8 7 4 5 6 7 8 10 9 3 3 4 5 7 8 9 10 10 7 9
15 15 20 24 25 29 41 40 38 36 36 35 30 26 24 23 19 15 13 13 9 10 9 9 7 7 9 9 8 7 5 7 5 6 6 6 4 4 5 10 9 9 11 11 13 12 10
15 18 22 26 25 33 40 39 38 34 33 31 28 24 21 16 13 10 8 7 4 3 2 2 4 6 8 11 11 9 6 6 4 5 4 6 8 10 10 9 11 9 11 13 16 17 13
19 24 25 26 27 33 38 39 37 35 32 29 27 24 20 17 14 12 9 8 6 7 6 5 6 8 10 12 14 9 7 5 6 7 6 7 8 10 10 10 12 14 13 14 13 14 21
22 25 26 28 27 29 35 37 36 33 31 28 25 23 21 18 16 14 13 13 12 11 11 10 11 11 11 12 14 9 7 7 8 9 8 9 10 12 15 13 12 14 16 16 14 13 17
24 25 26 28 28 28 30 31 31 31 29 26 25 23 22 20 18 18 18 17 16 15 15 15 14 14 14 13 11 10 9 11 12 11 12 12 12 15 18 17 14 13 15 16 16 18 17
26 26 26 27 27 28 27 27 27 28 27 27 25 24 22 22 22 21 20 19 17 18 18 18 17 16 15 14 12 11 12 12 14 16 17 15 14 16 19 21 17 15 13 17 19 20 20
26 28 28 28 27 26 25 24 23 22 23 22 20 18 18 18 19 19 18 18 18 18 17 16 17 16 14 12 15 14 15 18 19 18 17 18 16 18 18 20 18 14 14 18 22 21 23
27 28 27 26 25 23 22 21 19 17 17 18 16 14 12 10 9 11 13 13 14 12 11 13 13 14 14 15 18 21 20 19 19 19 19 19 17 17 18 16 14 16 17 18 23 25 22
29 29 28 25 23 20 18 17 14 15 15 14 16 14 11 10 9 8 8 10 10 11 13 13 15 17 18 22 23 19 16 17 18 16 14 14 17 16 17 14 15 18 20 24 27 30 29
30 29 27 25 23 20 17 15 14 13 13 13 16 15 11 9 10 8 7 8 10 11 12 11 14 14 10 12 10 11 11 13 10 10 11 10 12 14 15 16 18 22 24 31 32 32 33
32 31 30 27 24 21 18 16 14 13 13 13 14 14 13 10 9 8 7 8 7 8 8 9 11 12 10 10 10 9 9 11 10 9 10 10 12 18 20 21 24 24 26 30 34 33 35
34 33 31 29 27 23 20 18 15 13 12 13 14 14 14 13 11 10 7 9 7 7 7 8 9 8 9 10 12 13 11 13 13 14 14 15 17 21 24 26 27 24 24 29 37 38 36
35 34 33 31 28 25 22 20 18 15 13 12 13 14 14 13 11 10 9 8 9 10 9 10 11 12 13 15 17 17 17 17 17 20 22 22 22 21 28 31 32 26 23 31 38 41 42
36 34 33 32 30 27 25 23 21 18 14 14 14 14 14 12 11 9 8 7 8 9 10 12 13 13 16 17 18 20 21 20 22 23 23 25 25 26 26 31 36 29 25 31 39 42 47
38 37 35 32 31 29 27 26 24 20 17 14 13 13 13 13 10 10 9 9 7 6 8 9 10 12 15 17 18 20 23 25 25 25 26 27 27 27 26 31 36 33 35 37 39 36 41
40 39 37 36 34 32 30 28 26 24 21 17 15 13 14 11 12 13 12 10 9 10 11 14 15 17 18 20 21 22 23 24 25 27 29 31 32 37 30 37 41 36 35 37 37 36 40
40 38 38 37 35 34 33 32 31 29 25 22 19 17 16 14 14 15 14 13 13 13 15 17 20 24 24 23 23 24 27 28 29 29 29 33 38 41 41 38 40 30 32 35 37 37 42
41 39 38 37 36 35 34 34 33 31 28 27 23 20 20 18 18 18 19 19 19 20 25 27 25 28 25 26 30 29 29 32 34 34 34 37 40 42 43 41 44 27 38 40 45 44 43
43 41 39 39 38 37 37 36 35 34 31 32 29 26 24 24 23 24 25 25 26 26 29 34 31 31 35 37 36 33 34 35 38 36 33 37 38 38 39 45 49 36 44 48 53 52 50
45 42 40 39 39 37 37 36 35 35 34 34 34 31 29 28 27 28 29 29 31 34 35 38 39 38 42 40 44 40 33 34 33 33 32 33 35 37 40 47 52 42 48 52 56 56 55
44 44 42 41 39 38 37 38 36 36 36 36 36 35 34 32 30 33 34 36 37 38 38 42 42 44 46 46 45 41 39 36 37 34 33 35 36 36 41 45 50 45 50 51 55 61 63
45 45 44 43 41 41 40 38 38 38 37 36 37 37 36 36 37 37 38 38 42 45 46 47 51 50 50 48 46 42 41 39 39 38 37 38 41 42 47 52 53 52 52 52 58 61 62
48 45 45 45 45 43 42 40 39 40 40 39 39 41 43 42 42 42 42 44 48 47 50 54 51 50 49 46 41 42 41 43 42 44 38 43 41 47 47 53 48 49 54 58 59 62 64
Wind_Direction
215 204 201 158 149 162 153 154 166 150 148 143 139 135 132 130 130 131 131 129 136 135 127 117 120 117 112 104 102 98 90 79 78 84 90 92 84 88 94 99 96 93 87 81 86 69 54
193 174 181 171 188 185 170 150 155 147 144 142 136 132 132 131 130 130 132 132 132 132 126 125 126 121 114 102 92 89 91 91 91 96 99 97 94 98 97 99 103 104 95 84 66 46 16
178 170 165 183 182 172 153 155 150 148 145 140 136 136 134 133 131 130 127 125 127 130 132 124 119 123 122 100 86 81 79 80 81 72 83 92 89 77 77 81 72 89 82 106 93 99 62
168 162 181 178 164 153 150 152 149 148 146 142 140 137 136 134 131 128 128 126 124 123 120 115 111 112 101 84 77 72 57 57 61 48 44 58 72 58 35 104 67 49 107 160 120 94 42
158 170 165 161 153 150 151 154 151 149 148 145 144 142 141 139 136 132 128 121 116 110 105 107 104 93 84 91 88 56 34 7 20 14 22 41 25 21 346 332 100 160 37 37 42 358 17
156 153 161 155 147 153 153 155 154 152 153 152 151 149 147 143 140 137 133 126 115 107 102 96 91 84 71 55 56 52 12 356 353 360 12 18 12 321 290 318 7 354 345 334 340 355 344
169 159 155 149 151 152 158 158 158 158 160 161 160 157 157 154 148 140 140 134 116 121 95 87 69 65 49 33 23 22 352 340 345 337 5 339 333 354 350 354 339 335 320 321 323 326 337
175 164 154 151 151 154 162 165 164 162 166 168 170 171 165 160 150 154 162 164 160 179 124 71 19 6 5 359 357 352 338 320 327 301 328 333 347 337 341 336 322 337 319 317 307 308 316
171 164 157 153 151 160 164 166 168 170 170 174 178 180 179 182 191 199 209 218 230 233 260 286 313 325 333 335 331 326 323 317 306 299 322 319 319 331 334 321 316 322 327 315 307 293 296
170 163 159 156 155 159 169 171 174 175 177 183 186 191 194 202 213 223 233 233 241 252 259 274 283 293 304 314 309 308 309 312 310 296 298 304 311 315 315 322 319 307 314 320 317 308 303
168 165 161 160 158 161 170 177 182 184 188 191 195 203 212 219 227 229 231 237 243 247 250 255 263 274 282 287 286 284 290 300 299 289 284 291 302 308 311 310 311 307 309 312 309 311 317
169 164 160 159 162 163 166 173 182 191 197 204 209 216 224 232 235 236 237 241 242 243 248 255 261 267 274 279 270 280 294 300 297 291 283 284 294 307 304 303 306 305 301 303 305 310 313
171 163 159 155 156 158 163 169 177 184 193 201 207 216 226 236 242 243 243 242 240 245 255 256 261 266 263 265 275 282 288 291 290 292 284 280 283 286 287 289 298 299 301 305 305 306 315
171 164 162 159 158 159 163 166 173 177 182 186 188 195 204 215 224 235 240 243 246 250 250 248 252 254 257 268 280 289 290 288 285 284 282 282 279 279 284 289 282 284 295 302 306 306 312
178 174 171 167 166 165 164 165 173 181 185 190 199 204 212 220 223 232 244 254 257 249 247 253 260 264 274 284 284 289 294 298 292 293 288 288 287 292 291 287 291 298 307 309 307 305 307
185 182 180 178 178 174 175 179 188 194 191 196 198 204 209 216 219 228 243 252 260 266 270 274 270 275 275 274 276 283 303 300 308 302 290 291 291 297 303 302 300 305 310 309 307 308 310
192 190 189 188 185 186 188 189 195 201 200 203 204 202 208 212 215 221 228 249 273 274 278 279 266 273 276 270 283 300 312 315 316 307 299 298 301 301 297 297 300 305 307 308 307 309 309
197 196 195 195 195 195 195 197 200 205 206 214 212 209 212 219 220 233 243 247 276 281 274 273 270 262 263 275 285 295 302 311 313 303 298 301 302 301 303 304 303 311 313 307 302 304 308
200 200 200 200 200 201 202 205 208 207 213 223 228 222 223 228 231 237 243 252 262 269 273 272 274 277 274 278 283 290 301 306 306 304 307 305 303 301 304 304 304 311 319 308 303 305 311
204 203 204 205 204 206 207 208 211 212 217 228 227 227 231 236 239 245 254 265 277 281 283 285 291 292 292 291 293 294 294 293 295 296 297 300 304 306 305 303 302 315 315 298 298 304 302
207 208 208 208 208 212 213 213 215 217 220 227 232 233 232 235 242 250 253 260 266 276 278 296 305 304 298 301 299 295 298 301 302 301 301 300 304 302 304 302 302 315 313 309 304 307 305
212 211 213 213 214 213 214 216 221 220 223 225 232 236 241 243 243 248 257 269 284 295 311 318 314 305 304 301 301 305 305 301 300 302 306 311 311 305 312 308 310 322 311 306 308 312 312
215 217 216 217 219 219 219 218 220 220 223 226 230 237 242 246 248 258 266 276 279 280 294 305 304 304 300 293 295 302 305 300 297 296 297 304 306 306 311 311 307 320 308 309 309 311 310
215 218 220 220 220 223 225 224 225 223 225 231 235 241 245 252 257 260 264 272 280 281 291 295 304 307 300 298 294 296 298 296 297 298 301 303 301 304 309 311 305 326 311 312 310 313 316
217 218 221 222 222 223 224 227 228 229 229 233 237 241 246 250 256 262 267 269 275 281 286 287 293 298 306 300 305 296 290 292 292 291 293 298 302 302 307 305 307 324 312 314 312 314 314
219 221 220 223 226 228 229 229 232 233 236 240 242 245 251 256 260 265 270 275 282 286 288 290 288 294 304 298 301 302 293 291 292 294 293 296 300 303 307 307 310 324 314 313 311 313 312
217 220 222 223 225 229 234 236 236 239 241 245 250 253 256 261 263 268 274 277 281 286 285 289 288 291 297 297 300 298 291 292 295 297 294 298 297 301 304 308 309 313 310 308 309 312 314
221 222 222 225 226 230 232 236 241 243 245 248 252 255 257 258 260 264 267 274 280 282 287 286 289 295 294 293 294 295 291 291 292 292 300 301 300 306 311 310 317 314 310 307 309 309 314
224 225 227 227 228 230 233 236 238 243 245 248 251 256 259 259 259 265 269 275 279 283 284 285 293 301 295 294 291 289 288 291 295 295 301 299 301 308 311 306 312 306 302 306 307 312 314